NIUSAT

导读

NIUSAT是印度于2017年6月23日发射的一颗小型卫星,由印度尼尔玛大学自主研发打造,是该校首颗学生研发的应用型卫星。该卫星主要用于农业监测与减灾任务,可获取农田植被数据、监测自然灾害影响,为印度农业生产和防灾减灾提供遥感观测支持,也为印度高校航天人才培养提供了实践平台,是印度民间航天教育与应用结合的代表性项目。

基本信息
目录编号:
42766
目录名称:
NIUSAT
国际标识:
2017-036B
轨道中心:
EARTH
卫星名称:
NIUSAT
卫星全名:
--
卫星状态:
已陨落 最后检测时间 2024-04-27
发射日期:
2017-06-23 UTC
国别 :
印度 (IN)
星等 :
--
轨道信息
数据来源 国际轨道数据
星历时间: 2024-04-27T23:06:26+0800
轨道信息已过期807天
半长轴: 6551.668km
偏心率: 0.0010233
轨道倾角: 97.076°
近地点辐角 252.049°
升交点赤经 154.771°
平近点角 107.969°
近地点: 166.828km
远地点: 180.238km
周期: 87.960分钟
每日圈数: 16.370993
详细信息
使用方式:
暂无